Regional Weather Roundup
Issued by NWS

Home | Current Version | Previous Version | Graphics & Text | Print | Product List | Glossary On
Versions: 1 2 3 4 5 6 7 8 9 10 11 12 13 14 15 16 17 18 19 20 21 22 23 24 25 26 27 28 29 30 31 32 33 34 35 36 37 38 39 40 41 42 43 44 45 46 47 48 49 50
373
ASUS44 KMEG 110800
RWRTN
TENNESSEE HOURLY STATE WEATHER ROUNDUP
NATIONAL WEATHER SERVICE MEMPHIS TN
200 AM CST THU FEB 11 2016

TNZ002-004-019-021-049-052-054-088>092-110900-
WEST TENNESSEE

CITY           SKY/WX    TMP DP  RH WIND       PRES   REMARKS
MEMPHIS INTL   CLEAR     33  16  49 E8        30.06S WCI  26
NWS MEMPHIS      N/A     30 N/A N/A MISG        N/A
JACKSON        CLEAR     25  12  58 E6        30.10F WCI  18
DYERSBURG      CLEAR     27  12  54 E7        30.12F WCI  19
UNION CITY       N/A     23  16  74 E3        30.12S
PARIS          PTCLDY    21  18  86 E6        30.13S WCI  14
LEXINGTON      CLEAR     23  12  63 E3        30.11S
$$

TNZ008-025-027-028-033-062-065-066-110900-
NORTH MIDDLE TENNESSEE

CITY           SKY/WX    TMP DP  RH WIND       PRES   REMARKS
NASHVILLE      CLOUDY    26  21  81 SE5       30.16F WCI  20
CLARKSVILLE    CLOUDY    25  21  85 E5        30.15F WCI  19
COOKEVILLE     MOCLDY    23  18  80 CALM      30.13S
CROSSVILLE     CLOUDY    21  17  84 CALM      30.09F
$$

TNZ061-075-076-078-094-096-097-110900-
SOUTH MIDDLE TENNESSEE

CITY           SKY/WX    TMP DP  RH WIND       PRES   REMARKS
TULLAHOMA      CLOUDY    25  21  86 CALM      30.13F
WINCHESTER     CLOUDY    27  21  80 CALM      30.14F
MCMINNVILLE    CLOUDY    25  19  80 CALM      30.13F
COLUMBIA       MOCLDY    25  25 100 CALM      30.12F
SHELBYVILLE    CLOUDY    27  21  80 E3        30.15F
$$

TNZ017-018-042-046-047-110900-
NORTHEAST TENNESSEE

CITY           SKY/WX    TMP DP  RH WIND       PRES   REMARKS
TRI CITIES     CLOUDY    19   8  62 SW5       30.11S WCI  12
$$

TNZ012-013-036-069-073-074-110900-
CENTRAL EAST TENNESSEE

CITY           SKY/WX    TMP DP  RH WIND       PRES   REMARKS
KNOXVILLE      CLOUDY    26  17  68 SW5       30.15F WCI  20
OAK RIDGE      CLOUDY    27  16  63 W3        30.16F
GATLINBURG     CLOUDY    25  12  58 CALM      30.15R
$$

TNZ083-085-099-110900-
SOUTHEAST TENNESSEE

CITY           SKY/WX    TMP DP  RH WIND       PRES   REMARKS
CHATTANOOGA    CLOUDY    30  18  60 CALM      30.17S
$$

SKY/WX REPORTED AS FAIR MEANS FEW OR NO CLOUDS BELOW
12 THOUSAND FEET.





USA.gov is the U.S. government's official web portal to all federal, state and local government web resources and services.